This is the latest recevied weather packets stored in our database for station/object DH6PF-10. If no packets are shown the sender has not sent any weather packets the latest 10 day(s).
| Time | Temp. | Humidity | Pressure | Rain* | Wind** | Luminosity | Snow |
|---|---|---|---|---|---|---|---|
| 1787859111 | 27.22° C | 57% | 1011.2 hPa | - | - | - | - |
| 1787858510 | 26.67° C | 57% | 1011.2 hPa | - | - | - | - |
| 1787857911 | 26.11° C | 59% | 1011.1 hPa | - | - | - | - |
| 1787857311 | 25° C | 64% | 1011.2 hPa | - | - | - | - |
| 1787856711 | 25° C | 65% | 1011.3 hPa | - | - | - | - |
| 1787856111 | 25° C | 68% | 1011.1 hPa | - | - | - | - |
| 1787855511 | 25.56° C | 69% | 1011.2 hPa | - | - | - | - |
| 1787854911 | 25.56° C | 66% | 1011.4 hPa | - | - | - | - |
| 1787854310 | 26.67° C | 64% | 1011.3 hPa | - | - | - | - |
| 1787853711 | 26.67° C | 62% | 1011.4 hPa | - | - | - | - |
| 1787853110 | 27.22° C | 62% | 1011.8 hPa | - | - | - | - |
| 1787852511 | 27.78° C | 60% | 1012 hPa | - | - | - | - |
| 1787851911 | 28.33° C | 55% | 1012.1 hPa | - | - | - | - |
| 1787851311 | 28.89° C | 54% | 1011.8 hPa | - | - | - | - |
| 1787850711 | 28.89° C | 54% | 1011.8 hPa | - | - | - | - |
| 1787850110 | 28.89° C | 54% | 1011.9 hPa | - | - | - | - |
| 1787849511 | 29.44° C | 51% | 1011.9 hPa | - | - | - | - |
| 1787848911 | 29.44° C | 48% | 1012.1 hPa | - | - | - | - |
| 1787848311 | 29.44° C | 48% | 1012.2 hPa | - | - | - | - |
| 1787847711 | 30° C | 48% | 1012.2 hPa | - | - | - | - |
| 1787847111 | 30° C | 47% | 1012.4 hPa | - | - | - | - |
| 1787846511 | 28.89° C | 47% | 1012.4 hPa | - | - | - | - |
| 1787845910 | 28.89° C | 47% | 1012.6 hPa | - | - | - | - |
| 1787845311 | 28.89° C | 47% | 1012.7 hPa | - | - | - | - |
| 1787844710 | 30° C | 47% | 1012.7 hPa | - | - | - | - |
* Rain since midnight (hover to see other rain measurements)
** Current wind speed in m/s (hover to see current wind gust speed)